TRA31AP LSGG-LIMC

Flight info

Callsign TRA31AP
Flight time 1h 4m
Altitude 23000
Route MEDAM1A/22 MEDAM DCT NITAM DCT MOGBO DCT KODOK DCT TOP M135 ASTIG
Aircraft A320/M-SDE3FGHIRWY/LB1

Departure

Time 2026-05-05 19:53
Airport Geneva International Airport (LSGG)

Arrival

Time 2026-05-05 20:57
Airport Milan Malpensa International Airport (LIMC)
Time Latitude Longitude Altitude Speed Heading
2026-05-05 19:19 46.23129 6.10703 1393 ft 0 kts 135°
2026-05-05 19:42 46.23130 6.10701 1393 ft 2 kts 135°
2026-05-05 19:42 46.23146 6.10674 1405 ft 4 kts 114°
2026-05-05 19:42 46.23150 6.10640 1402 ft 4 kts 64°
2026-05-05 19:43 46.23136 6.10615 1404 ft 4 kts 45°
2026-05-05 19:43 46.23132 6.10609 1404 ft 0 kts 45°
2026-05-05 19:45 46.23133 6.10610 1404 ft 1 kts 45°
2026-05-05 19:45 46.23143 6.10624 1400 ft 3 kts 45°
2026-05-05 19:46 46.23165 6.10657 1400 ft 6 kts 45°
2026-05-05 19:46 46.23189 6.10693 1400 ft 6 kts 45°
2026-05-05 19:46 46.23224 6.10744 1395 ft 8 kts 45°
2026-05-05 19:46 46.23278 6.10785 1393 ft 9 kts 15°
2026-05-05 19:47 46.23344 6.10829 1400 ft 12 kts 41°
2026-05-05 19:47 46.23408 6.10922 1393 ft 14 kts 45°
2026-05-05 19:47 46.23474 6.11019 1402 ft 14 kts 45°
2026-05-05 19:47 46.23534 6.11108 1397 ft 11 kts 45°
2026-05-05 19:48 46.23592 6.11159 1396 ft 11 kts 353°
2026-05-05 19:48 46.23652 6.11092 1394 ft 8 kts 316°
2026-05-05 19:48 46.23714 6.11094 1381 ft 14 kts 43°
2026-05-05 19:48 46.23805 6.11226 1379 ft 20 kts 46°
2026-05-05 19:49 46.23876 6.11331 1375 ft 16 kts 45°
2026-05-05 19:49 46.23933 6.11414 1374 ft 19 kts 45°
2026-05-05 19:49 46.24065 6.11608 1369 ft 19 kts 45°
2026-05-05 19:49 46.24169 6.11762 1365 ft 24 kts 45°
2026-05-05 19:50 46.24296 6.11948 1363 ft 27 kts 45°
2026-05-05 19:50 46.24415 6.12122 1370 ft 22 kts 45°
2026-05-05 19:50 46.24521 6.12278 1372 ft 23 kts 45°
2026-05-05 19:50 46.24640 6.12453 1367 ft 27 kts 45°
2026-05-05 19:51 46.24755 6.12622 1362 ft 15 kts 45°
2026-05-05 19:51 46.24841 6.12686 1363 ft 14 kts 17°
2026-05-05 19:51 46.24922 6.12722 1366 ft 10 kts 17°
2026-05-05 19:51 46.24986 6.12739 1370 ft 9 kts 353°
2026-05-05 19:52 46.25018 6.12682 1372 ft 7 kts 258°
2026-05-05 19:52 46.24960 6.12590 1372 ft 23 kts 226°
2026-05-05 19:52 46.24658 6.12147 1372 ft 97 kts 225°
2026-05-05 19:52 46.24043 6.11247 1380 ft 151 kts 225°
2026-05-05 19:53 46.23293 6.10140 1916 ft 153 kts 227°
2026-05-05 19:53 46.22557 6.09030 2593 ft 154 kts 225°
2026-05-05 19:53 46.21776 6.07890 3096 ft 165 kts 224°
2026-05-05 19:53 46.20936 6.06668 3575 ft 177 kts 224°
2026-05-05 19:54 46.20033 6.05344 3999 ft 196 kts 224°
2026-05-05 19:54 46.19011 6.03844 4407 ft 222 kts 225°
2026-05-05 19:54 46.17893 6.02195 4980 ft 242 kts 225°
2026-05-05 19:54 46.16708 6.00443 5953 ft 246 kts 225°
2026-05-05 19:55 46.15500 5.98667 6868 ft 251 kts 225°
2026-05-05 19:55 46.14138 5.97065 7777 ft 257 kts 208°
2026-05-05 19:55 46.12390 5.96388 8581 ft 267 kts 184°
2026-05-05 19:55 46.10534 5.96856 9427 ft 278 kts 160°
2026-05-05 19:56 46.08933 5.98489 10311 ft 290 kts 135°
2026-05-05 19:56 46.07896 6.01039 11145 ft 300 kts 118°
2026-05-05 19:56 46.07036 6.03833 11709 ft 315 kts 117°
2026-05-05 19:56 46.06119 6.06835 11969 ft 339 kts 117°
2026-05-05 19:57 46.05110 6.10028 12166 ft 360 kts 121°
2026-05-05 19:57 46.04217 6.12050 12475 ft 365 kts 130°
2026-05-05 19:57 46.01814 6.15497 13392 ft 366 kts 144°
2026-05-05 19:57 45.99807 6.17785 14086 ft 370 kts 145°
2026-05-05 19:58 45.97776 6.20057 14796 ft 371 kts 146°
2026-05-05 19:58 45.95751 6.22306 15466 ft 373 kts 146°
2026-05-05 19:58 45.93686 6.24595 16151 ft 377 kts 146°
2026-05-05 19:58 45.91602 6.26908 16847 ft 380 kts 146°
2026-05-05 19:59 45.89504 6.29241 17522 ft 384 kts 146°
2026-05-05 19:59 45.87383 6.31603 18188 ft 388 kts 146°
2026-05-05 19:59 45.85242 6.33990 18819 ft 391 kts 146°
2026-05-05 19:59 45.83085 6.36396 19441 ft 394 kts 146°
2026-05-05 20:00 45.80914 6.38815 20064 ft 397 kts 146°
2026-05-05 20:00 45.78726 6.41254 20663 ft 400 kts 146°
2026-05-05 20:00 45.76524 6.43705 21220 ft 404 kts 146°
2026-05-05 20:00 45.74283 6.46196 21769 ft 407 kts 146°
2026-05-05 20:01 45.72040 6.48685 22276 ft 410 kts 146°
2026-05-05 20:01 45.69774 6.51194 22769 ft 413 kts 146°
2026-05-05 20:01 45.67494 6.53712 22924 ft 416 kts 146°
2026-05-05 20:01 45.65164 6.56281 22952 ft 429 kts 146°
2026-05-05 20:02 45.63583 6.58022 22949 ft 436 kts 146°
2026-05-05 20:02 45.61163 6.60685 22948 ft 441 kts 146°
2026-05-05 20:02 45.57937 6.64236 22919 ft 442 kts 146°
2026-05-05 20:02 45.55505 6.66913 22950 ft 442 kts 146°
2026-05-05 20:03 45.53076 6.69584 22947 ft 441 kts 146°
2026-05-05 20:03 45.50638 6.72261 22955 ft 441 kts 146°
2026-05-05 20:03 45.49000 6.74056 22951 ft 441 kts 146°
2026-05-05 20:03 45.45777 6.77590 22955 ft 441 kts 146°
2026-05-05 20:04 45.44132 6.79394 22953 ft 442 kts 146°
2026-05-05 20:04 45.41701 6.82057 22945 ft 441 kts 146°
2026-05-05 20:04 45.39272 6.84711 22954 ft 440 kts 146°
2026-05-05 20:04 45.36845 6.87353 22952 ft 440 kts 146°
2026-05-05 20:05 45.34402 6.90008 22948 ft 440 kts 146°
2026-05-05 20:05 45.31980 6.92649 22955 ft 440 kts 145°
2026-05-05 20:05 45.29819 6.95777 22955 ft 448 kts 130°
2026-05-05 20:05 45.28309 6.99697 22959 ft 458 kts 116°
2026-05-05 20:06 45.27183 7.03938 22971 ft 460 kts 115°
2026-05-05 20:06 45.26081 7.08207 22945 ft 460 kts 114°
2026-05-05 20:06 45.25006 7.12437 22407 ft 451 kts 114°
2026-05-05 20:06 45.23944 7.16633 21874 ft 450 kts 114°
2026-05-05 20:07 45.22898 7.20742 21358 ft 448 kts 114°
2026-05-05 20:07 45.21832 7.24885 20847 ft 445 kts 114°
2026-05-05 20:07 45.20765 7.28991 20336 ft 442 kts 115°
2026-05-05 20:07 45.19704 7.33055 19935 ft 439 kts 115°
2026-05-05 20:08 45.18643 7.37105 19561 ft 437 kts 115°
2026-05-05 20:08 45.17584 7.41141 19199 ft 435 kts 115°
2026-05-05 20:08 45.16533 7.45147 18839 ft 432 kts 115°
2026-05-05 20:08 45.15486 7.49137 18484 ft 430 kts 115°
2026-05-05 20:09 45.14444 7.53102 18096 ft 428 kts 115°
2026-05-05 20:09 45.13407 7.57044 17689 ft 426 kts 115°
2026-05-05 20:09 45.12377 7.60957 17379 ft 424 kts 115°
2026-05-05 20:09 45.11345 7.64872 17109 ft 423 kts 114°
2026-05-05 20:10 45.10319 7.68764 16836 ft 422 kts 114°
2026-05-05 20:10 45.09289 7.72648 16565 ft 421 kts 115°
2026-05-05 20:10 45.08258 7.76525 16193 ft 420 kts 114°
2026-05-05 20:10 45.07235 7.80374 15808 ft 418 kts 114°
2026-05-05 20:11 45.06220 7.84205 15430 ft 413 kts 114°
2026-05-05 20:11 45.05231 7.87940 15190 ft 398 kts 114°
2026-05-05 20:11 45.04274 7.91543 14959 ft 383 kts 114°
2026-05-05 20:11 45.03353 7.95003 14740 ft 370 kts 114°
2026-05-05 20:12 45.02459 7.98351 14527 ft 358 kts 114°
2026-05-05 20:12 45.01599 8.01572 14303 ft 340 kts 114°
2026-05-05 20:12 45.00799 8.04572 14091 ft 322 kts 114°
2026-05-05 20:12 45.00010 8.07502 13784 ft 314 kts 115°
2026-05-05 20:13 44.99238 8.10349 13433 ft 300 kts 115°
2026-05-05 20:13 44.98503 8.13058 13084 ft 291 kts 115°
2026-05-05 20:13 44.97781 8.15718 12770 ft 289 kts 115°
2026-05-05 20:13 44.97076 8.18319 12493 ft 286 kts 114°
2026-05-05 20:14 44.96374 8.20908 12362 ft 278 kts 114°
2026-05-05 20:14 44.95694 8.23423 12188 ft 272 kts 114°
2026-05-05 20:14 44.95022 8.25906 12005 ft 269 kts 114°
2026-05-05 20:14 44.94351 8.28382 11967 ft 270 kts 114°
2026-05-05 20:15 44.93920 8.30950 11976 ft 273 kts 92°
2026-05-05 20:15 44.94323 8.33564 11977 ft 277 kts 64°
2026-05-05 20:15 44.95511 8.35680 11977 ft 277 kts 36°
2026-05-05 20:15 44.97222 8.36868 11979 ft 274 kts
2026-05-05 20:16 44.99095 8.36911 11976 ft 268 kts 343°
2026-05-05 20:16 45.00768 8.35871 11978 ft 261 kts 318°
2026-05-05 20:16 45.01960 8.34011 11976 ft 254 kts 295°
2026-05-05 20:16 45.02519 8.31691 11972 ft 247 kts 273°
2026-05-05 20:17 45.02581 8.29282 11697 ft 245 kts 266°
2026-05-05 20:17 45.02525 8.26880 11407 ft 244 kts 264°
2026-05-05 20:17 45.02436 8.24486 11117 ft 244 kts 264°
2026-05-05 20:17 45.02340 8.22093 10833 ft 244 kts 264°
2026-05-05 20:18 45.02249 8.19705 10549 ft 243 kts 265°
2026-05-05 20:18 45.02130 8.17327 10269 ft 242 kts 257°
2026-05-05 20:18 45.01546 8.15138 9982 ft 238 kts 236°
2026-05-05 20:18 45.00423 8.13440 9666 ft 237 kts 214°
2026-05-05 20:19 44.98926 8.12488 9342 ft 238 kts 192°
2026-05-05 20:19 44.97279 8.12438 9051 ft 238 kts 169°
2026-05-05 20:19 44.95760 8.13297 8972 ft 242 kts 148°
2026-05-05 20:19 44.94547 8.14964 8974 ft 248 kts 125°
2026-05-05 20:20 44.93902 8.17227 8978 ft 252 kts 100°
2026-05-05 20:20 44.93834 8.19710 8982 ft 255 kts 91°
2026-05-05 20:20 44.93891 8.22217 8982 ft 255 kts 89°
2026-05-05 20:20 44.93982 8.24723 8978 ft 255 kts 89°
2026-05-05 20:21 44.94077 8.27223 8977 ft 256 kts 89°
2026-05-05 20:21 44.94203 8.29729 8977 ft 256 kts 81°
2026-05-05 20:21 44.94913 8.32020 8976 ft 258 kts 51°
2026-05-05 20:21 44.96301 8.33598 8977 ft 258 kts 23°
2026-05-05 20:22 44.98041 8.34095 8980 ft 256 kts 354°
2026-05-05 20:22 44.99728 8.33427 8972 ft 252 kts 327°
2026-05-05 20:22 45.01063 8.31801 8987 ft 266 kts 311°
2026-05-05 20:22 45.02607 8.30194 8971 ft 287 kts 338°
2026-05-05 20:23 45.04597 8.29936 8981 ft 294 kts 11°
2026-05-05 20:23 45.06411 8.31217 8978 ft 295 kts 41°
2026-05-05 20:23 45.07848 8.33298 8978 ft 296 kts 50°
2026-05-05 20:23 45.09175 8.35525 8984 ft 296 kts 51°
2026-05-05 20:24 45.10509 8.37753 8978 ft 296 kts 49°
2026-05-05 20:24 45.11887 8.39921 8980 ft 297 kts 47°
2026-05-05 20:24 45.13316 8.42032 8978 ft 297 kts 46°
2026-05-05 20:24 45.14780 8.44093 8993 ft 296 kts 45°
2026-05-05 20:25 45.16205 8.46042 8992 ft 282 kts 44°
2026-05-05 20:25 45.17606 8.47936 8985 ft 268 kts 44°
2026-05-05 20:25 45.18913 8.49700 8985 ft 260 kts 44°
2026-05-05 20:25 45.20225 8.51471 8994 ft 260 kts 44°
2026-05-05 20:26 45.21548 8.53223 8993 ft 260 kts 39°
2026-05-05 20:26 45.23162 8.54312 9003 ft 259 kts
2026-05-05 20:26 45.24932 8.54165 8999 ft 255 kts 340°
2026-05-05 20:26 45.26481 8.53007 9004 ft 251 kts 316°
2026-05-05 20:27 45.27585 8.51142 9008 ft 246 kts 295°
2026-05-05 20:27 45.28136 8.48869 9005 ft 243 kts 275°
2026-05-05 20:27 45.28078 8.46498 9001 ft 240 kts 254°
2026-05-05 20:27 45.27442 8.44333 8999 ft 238 kts 234°
2026-05-05 20:28 45.26322 8.42633 8981 ft 237 kts 215°
2026-05-05 20:28 45.24851 8.41603 8984 ft 237 kts 195°
2026-05-05 20:28 45.23213 8.41379 8986 ft 239 kts 176°
2026-05-05 20:28 45.21562 8.41671 8984 ft 240 kts 172°
2026-05-05 20:29 45.19916 8.42086 8976 ft 240 kts 171°
2026-05-05 20:29 45.18278 8.42536 8977 ft 240 kts 171°
2026-05-05 20:29 45.16636 8.42992 8981 ft 240 kts 171°
2026-05-05 20:29 45.15014 8.43436 8983 ft 240 kts 171°
2026-05-05 20:30 45.13373 8.43875 8984 ft 240 kts 171°
2026-05-05 20:30 45.11779 8.44562 8990 ft 242 kts 153°
2026-05-05 20:30 45.10491 8.46097 8981 ft 246 kts 128°
2026-05-05 20:30 45.09774 8.48302 8973 ft 251 kts 103°
2026-05-05 20:31 45.09800 8.50773 8982 ft 255 kts 76°
2026-05-05 20:31 45.10608 8.53001 8978 ft 258 kts 49°
2026-05-05 20:31 45.12047 8.54500 8976 ft 259 kts 21°
2026-05-05 20:31 45.13796 8.54928 8973 ft 256 kts 353°
2026-05-05 20:32 45.15560 8.54569 8995 ft 257 kts 348°
2026-05-05 20:32 45.17321 8.54118 8997 ft 257 kts 347°
2026-05-05 20:32 45.19074 8.53648 8999 ft 257 kts 347°
2026-05-05 20:32 45.20827 8.53175 9000 ft 257 kts 347°
2026-05-05 20:33 45.22518 8.52433 8995 ft 253 kts 327°
2026-05-05 20:33 45.23793 8.50784 8999 ft 247 kts 300°
2026-05-05 20:33 45.24414 8.48559 9005 ft 242 kts 275°
2026-05-05 20:33 45.24303 8.46217 8998 ft 238 kts 250°
2026-05-05 20:34 45.23511 8.44183 8998 ft 236 kts 226°
2026-05-05 20:34 45.22194 8.42827 8982 ft 236 kts 202°
2026-05-05 20:34 45.20590 8.42383 8985 ft 238 kts 179°
2026-05-05 20:34 45.18945 8.42669 8989 ft 239 kts 172°
2026-05-05 20:35 45.17311 8.43078 8790 ft 238 kts 171°
2026-05-05 20:35 45.15686 8.43516 8483 ft 237 kts 171°
2026-05-05 20:35 45.14068 8.43955 8195 ft 236 kts 171°
2026-05-05 20:35 45.12475 8.44455 8012 ft 234 kts 161°
2026-05-05 20:36 45.11080 8.45659 7981 ft 239 kts 137°
2026-05-05 20:36 45.10147 8.47612 7978 ft 244 kts 112°
2026-05-05 20:36 45.09901 8.49988 7974 ft 248 kts 86°
2026-05-05 20:36 45.10431 8.52312 7977 ft 252 kts 58°
2026-05-05 20:37 45.11653 8.54080 7979 ft 253 kts 31°
2026-05-05 20:37 45.12719 8.54734 7981 ft 253 kts 12°
2026-05-05 20:37 45.15045 8.54688 7998 ft 252 kts 349°
2026-05-05 20:37 45.16755 8.54268 7998 ft 252 kts 348°
2026-05-05 20:38 45.18479 8.53807 7997 ft 252 kts 347°
2026-05-05 20:38 45.20208 8.53340 8001 ft 252 kts 347°
2026-05-05 20:38 45.21919 8.52813 7997 ft 251 kts 338°
2026-05-05 20:38 45.23353 8.51495 7999 ft 246 kts 309°
2026-05-05 20:39 45.24193 8.49437 8004 ft 241 kts 283°
2026-05-05 20:39 45.24302 8.47109 7998 ft 236 kts 257°
2026-05-05 20:39 45.23696 8.44983 8001 ft 233 kts 232°
2026-05-05 20:39 45.22512 8.43443 7984 ft 232 kts 208°
2026-05-05 20:40 45.20974 8.42781 7978 ft 233 kts 184°
2026-05-05 20:40 45.19362 8.42955 7769 ft 233 kts 173°
2026-05-05 20:40 45.17762 8.43347 7381 ft 236 kts 167°
2026-05-05 20:40 45.16297 8.44407 7043 ft 239 kts 140°
2026-05-05 20:41 45.15347 8.46289 6752 ft 241 kts 112°
2026-05-05 20:41 45.15160 8.48665 6438 ft 244 kts 82°
2026-05-05 20:41 45.15811 8.50834 6119 ft 246 kts 52°
2026-05-05 20:41 45.17148 8.52287 5992 ft 246 kts 21°
2026-05-05 20:42 45.18835 8.52644 6004 ft 248 kts 353°
2026-05-05 20:42 45.20550 8.52323 6001 ft 249 kts 351°
2026-05-05 20:42 45.22266 8.51976 6005 ft 249 kts 351°
2026-05-05 20:42 45.23982 8.51626 6009 ft 249 kts 351°
2026-05-05 20:43 45.25696 8.51275 6007 ft 249 kts 351°
2026-05-05 20:43 45.27411 8.50925 6007 ft 248 kts 351°
2026-05-05 20:43 45.29115 8.50584 6007 ft 246 kts 353°
2026-05-05 20:43 45.30811 8.50772 6009 ft 246 kts 18°
2026-05-05 20:44 45.32289 8.51946 6008 ft 245 kts 44°
2026-05-05 20:44 45.33282 8.53891 6004 ft 244 kts 69°
2026-05-05 20:44 45.33703 8.56217 6010 ft 244 kts 81°
2026-05-05 20:44 45.34027 8.58592 6009 ft 245 kts 81°
2026-05-05 20:45 45.34466 8.63357 6003 ft 241 kts 103°
2026-05-05 20:45 45.33768 8.65460 6007 ft 235 kts 134°
2026-05-05 20:45 45.32486 8.66709 6006 ft 216 kts 163°
2026-05-05 20:46 45.31039 8.67158 6007 ft 212 kts 171°
2026-05-05 20:46 45.29595 8.67548 6008 ft 211 kts 170°
2026-05-05 20:46 45.28171 8.67939 6009 ft 211 kts 170°
2026-05-05 20:46 45.26726 8.68337 6009 ft 211 kts 170°
2026-05-05 20:47 45.25282 8.68734 6008 ft 211 kts 170°
2026-05-05 20:47 45.24326 8.68997 6008 ft 211 kts 170°
2026-05-05 20:47 45.22393 8.69529 6006 ft 212 kts 170°
2026-05-05 20:47 45.20947 8.69927 6006 ft 212 kts 170°
2026-05-05 20:48 45.19575 8.70640 6004 ft 213 kts 144°
2026-05-05 20:48 45.18915 8.71666 5983 ft 216 kts 121°
2026-05-05 20:48 45.18572 8.73732 5983 ft 221 kts 86°
2026-05-05 20:48 45.19032 8.75819 5983 ft 225 kts 63°
2026-05-05 20:49 45.20029 8.77544 5783 ft 225 kts 36°
2026-05-05 20:49 45.21439 8.78368 5466 ft 224 kts
2026-05-05 20:49 45.22996 8.78435 5156 ft 225 kts 359°
2026-05-05 20:49 45.24562 8.78455 4861 ft 224 kts 360°
2026-05-05 20:50 45.26114 8.78476 4589 ft 222 kts
2026-05-05 20:50 45.27656 8.78495 4310 ft 220 kts
2026-05-05 20:50 45.29173 8.78513 4178 ft 218 kts
2026-05-05 20:50 45.30698 8.78535 4080 ft 219 kts
2026-05-05 20:51 45.32221 8.78558 4006 ft 218 kts
2026-05-05 20:51 45.33741 8.78582 4008 ft 219 kts
2026-05-05 20:51 45.35261 8.78605 4008 ft 219 kts
2026-05-05 20:51 45.36785 8.78625 4009 ft 219 kts
2026-05-05 20:52 45.38307 8.78647 4006 ft 219 kts
2026-05-05 20:52 45.39828 8.78670 4008 ft 219 kts
2026-05-05 20:52 45.41354 8.78691 4007 ft 219 kts
2026-05-05 20:52 45.42873 8.78688 4006 ft 219 kts 357°
2026-05-05 20:53 45.44385 8.78452 4005 ft 219 kts 351°
2026-05-05 20:53 45.45868 8.78074 3854 ft 213 kts 349°
2026-05-05 20:53 45.47282 8.77685 3613 ft 207 kts 349°
2026-05-05 20:53 45.48664 8.77305 3328 ft 197 kts 349°
2026-05-05 20:54 45.49974 8.76944 3077 ft 188 kts 349°
2026-05-05 20:54 45.51242 8.76596 2828 ft 184 kts 350°
2026-05-05 20:54 45.52496 8.76251 2581 ft 183 kts 350°
2026-05-05 20:54 45.53724 8.75913 2338 ft 175 kts 350°
2026-05-05 20:55 45.54892 8.75591 2106 ft 167 kts 350°
2026-05-05 20:55 45.56003 8.75285 1888 ft 159 kts 351°
2026-05-05 20:55 45.57062 8.74993 1691 ft 146 kts 351°
2026-05-05 20:55 45.58027 8.74727 1476 ft 140 kts 350°
2026-05-05 20:56 45.58965 8.74469 1282 ft 135 kts 349°
2026-05-05 20:56 45.59879 8.74217 1093 ft 133 kts 349°
2026-05-05 20:56 45.60781 8.73969 913 ft 131 kts 349°
2026-05-05 20:56 45.61672 8.73725 784 ft 131 kts 349°
2026-05-05 20:57 45.62510 8.73494 745 ft 100 kts 348°
2026-05-05 20:57 45.62959 8.73361 744 ft 31 kts 347°
2026-05-05 20:57 45.63131 8.73257 745 ft 23 kts 325°
2026-05-05 20:57 45.63232 8.73127 750 ft 16 kts 313°
2026-05-05 20:58 45.63295 8.72996 749 ft 17 kts 303°
2026-05-05 20:58 45.63343 8.72894 749 ft 9 kts 304°
2026-05-05 20:58 45.63377 8.72823 751 ft 7 kts 304°
2026-05-05 20:58 45.63403 8.72746 752 ft 10 kts 286°
2026-05-05 20:59 45.63404 8.72626 752 ft 14 kts 261°
2026-05-05 20:59 45.63387 8.72496 749 ft 12 kts 259°
2026-05-05 20:59 45.63369 8.72358 749 ft 16 kts 259°
2026-05-05 20:59 45.63345 8.72181 744 ft 14 kts 259°
2026-05-05 21:00 45.63328 8.72056 747 ft 12 kts 258°
2026-05-05 21:00 45.63295 8.71967 749 ft 10 kts 196°
2026-05-05 21:00 45.63216 8.71986 748 ft 13 kts 169°
2026-05-05 21:00 45.63133 8.72008 752 ft 9 kts 169°
2026-05-05 21:01 45.63100 8.72017 748 ft 1 kts 169°
2026-05-05 21:01 45.63083 8.72022 749 ft 4 kts 169°
2026-05-05 21:01 45.63046 8.72032 750 ft 5 kts 169°
2026-05-05 21:01 45.63037 8.72033 748 ft 3 kts 175°
2026-05-05 21:02 45.63011 8.72021 749 ft 5 kts 213°
2026-05-05 21:02 45.62996 8.71965 752 ft 8 kts 260°
2026-05-05 21:02 45.62986 8.71884 748 ft 8 kts 259°
2026-05-05 21:02 45.62974 8.71798 750 ft 10 kts 259°
2026-05-05 21:03 45.62927 8.71747 750 ft 8 kts 179°
2026-05-05 21:03 45.62884 8.71771 749 ft 7 kts 153°
2026-05-05 21:03 45.62877 8.71824 751 ft 2 kts 78°
2026-05-05 21:03 45.62882 8.71851 753 ft 3 kts 75°
2026-05-05 21:04 45.62885 8.71870 753 ft 0 kts 78°
2026-05-05 21:04 45.62885 8.71871 752 ft 0 kts 78°